MET-2/21
1 22782U 93055A   05279.70976471  .00000087  00000-0  65388-4 0  3192
2 22782 082.5515 172.5305 0022617 167.3839 192.7907 13.83595472610994
OKEAN-4
1 23317U 94066A   05278.86290769  .00000201  00000-0  22046-4 0 07528
2 23317 082.5406 154.2023 0023306 128.9347 231.3926 14.82237616592303
NOAA-14
1 23455U 94089A   05279.21709067  .00000219  00000-0  14021-3 0  7951
2 23455 099.0779 329.2973 0009811 051.8000 019.5577 14.13601553555187
SICH-1
1 23657U 95046A   05278.75334740  .00000222  00000-0  25275-4 0  5539
2 23657 082.5250 295.1507 0025546 117.3587 243.0251 14.81240870544320
NOAA-15
1 25338U 98030A   05279.25767180  .00000041  00000-0  36039-4 0  2117
2 25338 098.5161 284.2257 0011342 038.9658 321.2335 14.24541882384567
RESURS
1 25394U 98043A   05278.94296184 -.00000009  00000-0  14784-4 0 02230
2 25394 098.5276 344.9480 0001541 160.0642 200.0597 14.24081635376210
FENGYUN1
1 25730U 99025A   05279.97077393  .00000154  00000-0  10730-3 0  5417
2 25730 098.6163 277.3178 0015200 139.9227 220.3083 14.11801483330283
OKEAN-0
1 25860U 99039A   05278.73545329  .00000115  00000-0  24999-4 0 05575
2 25860 097.7527 299.7420 0001030 128.0877 232.0424 14.73296638334286
NOAA-16
1 26536U 00055A   05279.16616507  .00000200  00000-0  13323-3 0  5495
2 26536 099.0260 238.3191 0011178 113.2662 246.9718 14.12278641259724
NOAA-17
1 27453U 02032A   05280.10397743 -.00000043  00000-0  27233-6 0  5679
2 27453 098.6508 351.8748 0012604 091.1889 269.0844 14.23709061170761
NOAA-18
1 28654U 05018A   05279.40295444  .00000372  00000-0  23154-3 0  1794
2 28654 098.7535 223.5290 0013590 218.8980 141.1224 14.10889340 19598
HUBBLE
1 20580U 90037B   05278.32298965  .00000544  00000-0  29859-4 0 04423
2 20580 028.4689 271.0957 0003429 002.1405 357.9198 14.99855810646799
UARS
1 21701U 91063B   05279.81049940 -.00300101  00000-0 -14911-1 0  5651
2 21701 056.9803 097.3931 0060366 086.3126 039.5172 15.16899347770287
PO-34
1 25520U 98064B   05278.81247150  .00000614  00000-0  20948-4 0  2914
2 25520 028.4607 292.5962 0005345 353.1795 006.8719 15.16459571383399
ISS
1 25544U 98067A   05280.14957176  .00017843  00000-0  12791-3 0  5009
2 25544 051.6450 047.4110 0001757 091.4134 269.6509 15.73774120393304
OO-38
1 26063U 00004C   05278.72352356 -.00000026  00000-0  11105-4 0  4532
2 26063 100.1974 158.8999 0037322 104.0721 256.4596 14.35735696298153
NO-45
1 26932U 01043D   05278.76353173 -.00000149  00000-0 -25751-4 0  1427
2 26932 067.0567 302.6679 0003747 261.7996 098.2684 14.29500816209609
